London, United Kingdom

9:07 AM BST on July 28, 2017 (GMT +0100)
Heathrow

Weather History for EGLL - April, 2014

Change the Weather History Date:

Thursday, April 10, 2014

  Actual Average Record
Temperature  
Mean Temperature 52 °F -  
Max Temperature 61 °F 58 °F 70 °F (2015)
Min Temperature 43 °F 43 °F 32 °F (2006)
Degree Days  
Heating Degree Days 13    
Growing Degree Days 2 (Base 50)    
Moisture  
Dew Point 41 °F    
Average Humidity 62    
Maximum Humidity 93    
Minimum Humidity 31    
Precipitation  
Precipitation 0.00 in - - ()
Sea Level Pressure  
Sea Level Pressure 30.19 in    
Wind  
Wind Speed 5 mph ()    
Max Wind Speed 12 mph    
Max Gust Speed -    
Visibility 9.0 miles    
Events      
Averages and records for this station are not official NWS values.
T = Trace of Precipitation, MM = Missing Value Source: Averaged Metar Reports

Daily Weather History Graph

Daily Weather History Graph

Search for Another Location

Airport or City:

Trip Planner

Search our weather history database for the weather conditions in past years. The results will help you decide how hot, cold, wet, or windy it might be!

Date:

Astronomy

Apr. 10, 2014 Rise Set
Actual Time 6:17 AM BST 7:49 PM BST
Civil Twilight 5:42 AM BST 8:24 PM BST
Nautical Twilight 5:00 AM BST 9:07 PM BST
Astronomical Twilight 4:13 AM BST 9:54 PM BST
Moon 2:50 PM BST (4/10) 4:03 AM BST (4/10)
Length of Visible Light 14h 42m
Length of Day
13h 32m
Waxing Gibbous, 78% of the Moon is Illuminated
Apr 10
Waxing Gibbous
Apr 15
Full
Apr 22
Last Quarter
Apr 29
New
May 7
First Quarter

Hourly Weather History & Observations

Time (BST) Temp. Windchill Dew Point Humidity Pressure Visibility Wind Dir Wind Speed Gust Speed Precip Events Conditions
12:00 AM 49 °F - 40 °F 63% 30.26 in 17 mi West 5.8 mph - -  
12:20 AM 50.0 °F - 41.0 °F 71% 30.24 in - West 5.8 mph - N/A   Clear
12:50 AM 48.2 °F - 41.0 °F 76% 30.24 in 6.2 mi West 5.8 mph - N/A   Scattered Clouds
1:00 AM 48 °F - 40 °F 67% 30.26 in 17 mi West 4.6 mph - -  
1:20 AM 48.2 °F - 41.0 °F 76% 30.24 in 6.2 mi West 6.9 mph - N/A   Scattered Clouds
1:50 AM 48.2 °F - 41.0 °F 76% 30.24 in 6.2 mi West 6.9 mph - N/A   Mostly Cloudy
2:00 AM 47 °F - 41 °F 71% 30.25 in 15 mi West 5.8 mph - -   Partly Cloudy
2:20 AM 48.2 °F - 41.0 °F 76% 30.24 in 6.2 mi West 4.6 mph - N/A   Overcast
2:50 AM 46.4 °F 43.5 °F 41.0 °F 81% 30.24 in 6.2 mi West 5.8 mph - N/A   Mostly Cloudy
3:00 AM 47 °F - 41 °F 71% 30.25 in 15 mi West 4.6 mph - -   Mostly Cloudy
3:20 AM 46.4 °F 42.9 °F 41.0 °F 81% 30.24 in 6.2 mi West 6.9 mph - N/A   Mostly Cloudy
3:50 AM 46.4 °F 43.5 °F 41.0 °F 81% 30.24 in 6.2 mi West 5.8 mph - N/A   Mostly Cloudy
4:00 AM 46 °F - 40 °F 74% 30.24 in 14 mi West 3.5 mph - -   Mostly Cloudy
4:20 AM 46.4 °F 43.5 °F 41.0 °F 81% 30.21 in 6.2 mi West 5.8 mph - N/A   Mostly Cloudy
4:50 AM 44.6 °F 41.4 °F 41.0 °F 87% 30.21 in 6.2 mi West 5.8 mph - N/A   Mostly Cloudy
5:00 AM 44 °F - 40 °F 82% 30.23 in 11 mi West 4.6 mph - -   Mostly Cloudy
5:20 AM 44.6 °F 41.4 °F 41.0 °F 87% 30.21 in 6.2 mi West 5.8 mph - N/A   Mostly Cloudy
5:50 AM 44.6 °F 41.4 °F 42.8 °F 93% 30.21 in 6.2 mi WSW 5.8 mph - N/A   Mostly Cloudy
6:00 AM 44 °F - 41 °F 85% 30.23 in 8 mi West 5.8 mph - -   Mostly Cloudy
6:20 AM 44.6 °F 41.4 °F 42.8 °F 93% 30.21 in 5.6 mi West 5.8 mph - N/A   Mostly Cloudy
6:50 AM 46.4 °F 43.5 °F 42.8 °F 87% 30.21 in 5.6 mi West 5.8 mph - N/A   Mostly Cloudy
7:00 AM 45 °F - 41 °F 82% 30.24 in 7 mi West 4.6 mph - -  
7:20 AM 46.4 °F 44.3 °F 42.8 °F 87% 30.24 in 5.6 mi West 4.6 mph - N/A   Mostly Cloudy
7:50 AM 46.4 °F 44.3 °F 42.8 °F 87% 30.24 in 5.6 mi West 4.6 mph - N/A   Mostly Cloudy
8:00 AM 46 °F - 42 °F 80% 30.25 in 9 mi West 4.6 mph - -   Mostly Cloudy
8:20 AM 46.4 °F 44.3 °F 42.8 °F 87% 30.24 in 6.2 mi West 4.6 mph - N/A   Scattered Clouds
8:50 AM 48.2 °F - 42.8 °F 82% 30.24 in 6.2 mi Variable 3.5 mph - N/A   Partly Cloudy
9:00 AM 49 °F - 42 °F 70% 30.25 in 9 mi West 3.5 mph - -   Scattered Clouds
9:20 AM 51.8 °F - 42.8 °F 71% 30.24 in - SW 4.6 mph - N/A   Clear
9:50 AM 51.8 °F - 42.8 °F 71% 30.21 in - Variable 3.5 mph - N/A   Clear
10:00 AM 52 °F - 40 °F 54% 30.23 in 11 mi WSW 3.5 mph - -  
10:20 AM 53.6 °F - 41.0 °F 62% 30.21 in 6.2 mi SW 4.6 mph - N/A   Partly Cloudy
10:50 AM 55.4 °F - 39.2 °F 54% 30.21 in 6.2 mi WSW 5.8 mph - N/A   Partly Cloudy
11:00 AM 55 °F - 40 °F 45% 30.23 in 19 mi WSW 5.8 mph - -  
11:20 AM 55.4 °F - 39.2 °F 54% 30.21 in 6.2 mi West 5.8 mph - N/A   Partly Cloudy
11:50 AM 57.2 °F - 41.0 °F 55% 30.21 in 6.2 mi WSW 8.1 mph - N/A   Partly Cloudy
12:00 PM 57 °F - 38 °F 37% 30.22 in 19 mi SW 6.9 mph - -  
12:20 PM 57.2 °F - 41.0 °F 55% 30.21 in 6.2 mi West 5.8 mph - N/A   Partly Cloudy
12:50 PM 59.0 °F - 39.2 °F 48% 30.18 in 6.2 mi West 8.1 mph - N/A   Partly Cloudy
1:00 PM 58 °F - 38 °F 35% 30.20 in 19 mi WSW 6.9 mph - -  
1:20 PM 59.0 °F - 39.2 °F 48% 30.18 in 6.2 mi West 6.9 mph - N/A   Partly Cloudy
1:50 PM 59.0 °F - 39.2 °F 48% 30.18 in 6.2 mi WNW 6.9 mph - N/A   Partly Cloudy
2:00 PM 60 °F - 39 °F 34% 30.18 in 25 mi West 6.9 mph - -  
2:20 PM 60.8 °F - 39.2 °F 45% 30.18 in 6.2 mi WNW 6.9 mph - N/A   Partly Cloudy
2:50 PM 60.8 °F - 41.0 °F 48% 30.15 in 6.2 mi West 6.9 mph - N/A   Partly Cloudy
3:00 PM 61 °F - 38 °F 31% 30.17 in 28 mi West 6.9 mph - -  
3:20 PM 59.0 °F - 37.4 °F 45% 30.15 in 6.2 mi West 6.9 mph - N/A   Partly Cloudy
3:50 PM 60.8 °F - 39.2 °F 45% 30.15 in 6.2 mi West 11.5 mph - N/A   Partly Cloudy
4:00 PM 61 °F - 39 °F 33% 30.16 in 22 mi West 9.2 mph - -   Scattered Clouds
4:20 PM 59.0 °F - 39.2 °F 48% 30.15 in 6.2 mi WNW 8.1 mph - N/A   Partly Cloudy
4:50 PM 59.0 °F - 39.2 °F 48% 30.12 in 6.2 mi West 10.4 mph - N/A   Partly Cloudy
5:00 PM 61 °F - 40 °F 33% 30.14 in 22 mi West 10.4 mph - -   Scattered Clouds
5:20 PM 57.2 °F - 41.0 °F 55% 30.12 in 6.2 mi West 9.2 mph - N/A   Partly Cloudy
5:50 PM 57.2 °F - 39.2 °F 51% 30.12 in - West 9.2 mph - N/A   Clear
6:00 PM 58 °F - 39 °F 37% 30.14 in 22 mi West 9.2 mph - -   Scattered Clouds
6:20 PM 57.2 °F - 41.0 °F 55% 30.12 in - WNW 9.2 mph - N/A   Clear
6:50 PM 57.2 °F - 41.0 °F 55% 30.12 in 6.2 mi NW 6.9 mph - N/A   Partly Cloudy
7:00 PM 57 °F - 40 °F 42% 30.14 in 22 mi NW 6.9 mph - -   Mostly Cloudy
7:20 PM 55.4 °F - 41.0 °F 58% 30.12 in - WNW 6.9 mph - N/A   Clear
7:50 PM 55.4 °F - 41.0 °F 58% 30.15 in - NW 4.6 mph - N/A   Clear
8:00 PM 56 °F - 41 °F 46% 30.14 in 17 mi NW 5.8 mph - -   Overcast
8:20 PM 55.4 °F - 41.0 °F 58% 30.15 in - NW 4.6 mph - N/A   Clear
8:50 PM 55.4 °F - 41.0 °F 58% 30.15 in - NW 4.6 mph - N/A   Clear
9:00 PM 55 °F - 41 °F 47% 30.16 in 17 mi WNW 4.6 mph - -   Overcast
9:20 PM 55.4 °F - 41.0 °F 58% 30.15 in - NW 3.5 mph - N/A   Clear
9:50 PM 55.4 °F - 41.0 °F 58% 30.15 in - NW 4.6 mph - N/A   Clear
10:00 PM 54 °F - 40 °F 49% 30.16 in 16 mi NW 4.6 mph - -   Overcast
10:20 PM 55.4 °F - 41.0 °F 58% 30.15 in - Variable 3.5 mph - N/A   Clear
10:50 PM 55.4 °F - 41.0 °F 58% 30.15 in - Variable 3.5 mph - N/A   Clear
11:00 PM 54 °F - 40 °F 47% 30.16 in 19 mi NNW 4.6 mph - -   Overcast
11:20 PM 55.4 °F - 41.0 °F 58% 30.15 in - North 4.6 mph - N/A   Clear
11:50 PM 53.6 °F - 41.0 °F 62% 30.15 in - Variable 3.5 mph - N/A   Clear